Regional Weather Roundup
Issued by NWS

Home | Current Version | Previous Version | Graphics & Text | Print | Product List | Glossary On
Versions: 1 2 3 4 5 6 7 8 9 10 11 12 13 14 15 16 17 18 19 20 21 22 23 24 25 26 27 28 29 30 31 32 33 34 35 36 37 38 39 40 41 42 43 44 45 46 47 48 49 50
000
ASUS43 KMKX 301621
RWRWI

WISCONSIN REGIONAL WEATHER ROUNDUP
NATIONAL WEATHER SERVICE MILWAUKEE/SULLIVAN WI
1100 AM CDT MON MAR 30 2015

NOTE: "FAIR" INDICATES FEW OR NO CLOUDS BELOW 12,000 FEET WITH NO
SIGNIFICANT WEATHER AND/OR OBSTRUCTIONS TO VISIBILITY.

WIZ001-002-006>008-014>016-023>028-301700-
NORTHWEST WISCONSIN

CITY           SKY/WX    TMP DP  RH WIND       PRES   REMARKS
SUPERIOR ARPT  MOSUNNY   46  29  52 SW5       29.94S
ASHLAND        MOSUNNY   49  26  41 VRB7      29.93S
HAYWARD        PTSUNNY   45  26  47 CALM      29.94S
SIREN          CLOUDY    43  29  57 W9        29.97R
CUMBERLAND     CLOUDY    41  30  65 SW6       29.96R
RICE LAKE      PTSUNNY   44  29  57 W3        29.98R
CHETEK         PTSUNNY   45  30  57 SE3       29.95S
LADYSMITH      MOSUNNY   48  26  41 CALM      29.96R
EAU CLAIRE     CLOUDY    44  30  57 SW6       29.97R
MENOMONIE      CLOUDY    45  30  56 W5        29.99R
NEW RICHMOND   CLOUDY    42  30  62 CALM      29.97S
OSCEOLA        CLOUDY    43  31  64 CALM      29.99S
$$

WIZ003>005-009-010-017-018-301700-
NORTH CENTRAL WISCONSIN

CITY           SKY/WX    TMP DP  RH WIND       PRES   REMARKS
MANITOWISH WTR SUNNY     41  24  51 NW14      29.89S
ARBOR VITAE    SUNNY     43  26  51 N10G18    29.89F
WOODRUFF       SUNNY     43  26  51 N10G18    29.89F
RHINELANDER    SUNNY     45  24  43 NW13G20   29.90S
EAGLE RIVER    SUNNY     43  25  49 NW12G17   29.88S
LAND O LAKES   SUNNY     42  22  44 N9        29.89R
PHILLIPS       CLOUDY    45  26  46 NW7       29.92S
TOMAHAWK       SUNNY     46  22  39 NW3G17    29.92S
MEDFORD        SUNNY     46  27  46 NW8       29.93S
MERRILL        SUNNY     48  25  40 NW9       29.92S
$$

WIZ029-030-035-036-043>047-301700-
CENTRAL WISCONSIN

CITY           SKY/WX    TMP DP  RH WIND       PRES   REMARKS
WAUSAU         SUNNY     49  25  39 W9        29.91F
MOSINEE        SUNNY     46  27  46 NW14G21   29.94F
MARSHFIELD     MOSUNNY   49  30  48 NW8       29.95S
STEVENS POINT  SUNNY     47  23  39 NW8G17    29.94S
WAUPACA        SUNNY     54  23  30 NW10      29.95S
WAUTOMA        MOSUNNY   52  29  41 NW8       29.96F
WISC RAPIDS    SUNNY     51  25  36 NW8       29.96F
CAMP DOUGLAS   PTSUNNY   52  32  46 NW8       29.95F
$$

WIZ011>013-019>022-031-037>040-048>050-301700-
NORTHEAST WISCONSIN

CITY           SKY/WX    TMP DP  RH WIND       PRES   REMARKS
ANTIGO         SUNNY     44  26  49 NW14G21   29.90F
SHAWANO        SUNNY     51  26  38 NW13      29.92F
OCONTO         SUNNY     47  26  43 NW9       29.90S
STURGEON BAY   SUNNY     45  28  53 W13       29.93R
GREEN BAY      SUNNY     49  30  48 NW13      29.93S
MANITOWOC      SUNNY     49  28  44 NW18G24   29.93F
APPLETON       MOSUNNY   48  23  37 NW16      29.94F
CLINTONVILLE   SUNNY     50  23  34 N15       29.93S
OSHKOSH        SUNNY     50  31  48 W9        29.95F
$$

WIZ032>034-041-042-053>061-301700-
SOUTHWEST WISCONSIN

CITY           SKY/WX    TMP DP  RH WIND       PRES   REMARKS
LA CROSSE      PTSUNNY   48  28  46 W8        29.98S
SPARTA         SUNNY     51  28  40 SW5       29.97S
VIROQUA        PTSUNNY   47  31  54 W10       29.98S
BOSCOBEL       MOSUNNY   51  29  42 SW8       30.00F
PRAIRIE DU CHI MOSUNNY   50  28  41 CALM      30.00F
PLATTEVILLE    SUNNY     51  32  48 SW10      30.01F
$$

WIZ056-057-062-063-064-067-068-301700-
SOUTH CENTRAL WISCONSIN

CITY           SKY/WX    TMP DP  RH WIND       PRES   REMARKS
REEDSBURG      SUNNY     50  30  46 W9        29.96F
BARABOO/DELLS  SUNNY     51  28  40 W9        29.96F
LONE ROCK      SUNNY     52  28  39 W16       29.99F
MINERAL POINT  SUNNY     46  28  49 W9        30.00F
MADISON        PTSUNNY   50  28  42 SW6       29.98F
MIDDLETON      SUNNY     56  26  32 W14G20    29.99F
WATERTOWN      PTSUNNY   51  32  48 W12       29.99F
MONROE         SUNNY     50  32  50 W17G23    30.01F
JANESVILLE     PTSUNNY   52  30  43 SW8       30.02F
$$

WIZ051-052-058>065-066-070>072-301700-
SOUTHEAST WISCONSIN

CITY           SKY/WX    TMP DP  RH WIND       PRES   REMARKS
MILWAUKEE      PTSUNNY   52  25  35 NW10G24   30.00F
WAUKESHA       PTSUNNY   48  28  46 W14       30.00F
MILWAUKEE/TIMM MOSUNNY   50  27  40 W13G21    30.00S
RACINE         PTSUNNY   52  29  41 W10G18    30.02F
BURLINGTON     MOSUNNY   51  29  42 W9G16     30.01F
KENOSHA        MOSUNNY   52  31  44 W14       30.01F
FOND DU LAC    MOSUNNY   49  30  48 W13       29.97S
SHEBOYGAN      SUNNY     49  29  46 NW17G23   29.96S
WEST BEND      PTSUNNY   50  28  43 W15       29.97F
JUNEAU         CLOUDY    48  32  54 SW10      29.99F
$$

LSZ147-162-301700-
LAKE SUPERIOR

STATION/POSITION TIME  TEMP    WIND        PRES    WAVE
                       AIR SEA DIR/SP/G            HT/PER
                 (UTC) (F)     (DEG/KT/KT) (MB)    (FT/S)
DEVILS ISLAND    1600   36     250/ 12/ 15 1014.1R
PORT WING        1540   41     270/  7/ 10 1013.9R
SAXON HARBOR     1500   42     320/  4/ 11 1013.2
$$

LMZ867-665-643>646-301700-
LAKE MICHIGAN

STATION/POSITION TIME  TEMP    WIND        PRES    WAVE
                       AIR SEA DIR/SP/G            HT/PER
                 (UTC) (F)     (DEG/KT/KT) (MB)    (FT/S)
NORTHPORT PIER   1500   35     340/  6/  8 1012.2R
SISTER BAY       1402   43     310/ 12/ 13   N/A
KEWAUNEE LAKESHO 1600   46     300/ 13/ 20 1012.4R
SHEBOYGAN LAKESH 1600   49     290/ 16/ 23 1014.9F
PORT WASHINGTON  1500   49     300/  9/ 21 1015.9R
MILWAUKEE LAKESH 1600   50     300/ 12/ 16   N/A
KENOSHA   LAKESH 1600   51     280/ 11/ 17 1016.3F
$$

TC  - TEMPERATURE IN CELSIUS
VSB - VISIBILITY IN STATUTE MILES
WCI - WIND CHILL INDEX
HX  - HEAT INDEX




USA.gov is the U.S. government's official web portal to all federal, state and local government web resources and services.